2019-204T00:41:25.571,   1, 180,   1,    30,   4,          0,     41.614,  99294.559,    31.090,   -39.000,     1.113,    87.014, 2, 5.486E-04, -1.00,   3,  2.954E-03,  2.486E-04,  2.092E-13,  6.152E-14,  4.420E+02,  1.300E+02, 255
2019-204T00:41:55.572,   1, 180,   1,    30,   4,          0,     41.614,  99294.559,    31.094,   -38.998,     1.113,    86.711, 2, 5.486E-04, -1.00,   3,  2.267E-03,  2.335E-04,  4.430E-14,  5.787E-14,  1.220E+02,  1.594E+02, 255
2019-204T00:42:25.572,   1, 180,   1,    30,   4,          0,     41.614,  99294.559,    31.098,   -38.997,     1.113,    86.408, 2, 5.486E-04, -1.00,   3,  2.351E-03,  2.422E-04,  8.606E-14,  6.082E-14,  2.285E+02,  1.614E+02, 255
2019-204T00:47:25.575,   1, 180,   1,    30,   4,          0,     41.614,  99294.559,    31.135,   -38.982,     1.112,    83.381, 2, 5.486E-04, -1.00,   3,  2.522E-03,  2.390E-04,  1.526E-13,  5.933E-14,  3.776E+02,  1.468E+02, 255
2019-204T00:47:55.576,   1, 180,   1,    30,   4,          0,     41.614,  99294.559,    31.138,   -38.980,     1.112,    83.078, 2, 5.486E-04, -1.00,   3,  3.022E-03,  2.443E-04,  7.202E-14,  5.832E-14,  1.487E+02,  1.204E+02, 255
2019-204T00:48:25.576,   1, 180,   1,    30,   4,          0,     41.614,  99294.559,    31.142,   -38.979,     1.112,    82.775, 2, 5.486E-04, -1.00,   3,  2.143E-03,  2.378E-04,  6.461E-14,  5.834E-14,  1.882E+02,  1.699E+02, 255
2019-204T00:49:55.577,   1, 180,   1,    30,   4,          0,     41.614,  99294.559,    31.153,   -38.974,     1.112,    81.867, 2, 5.486E-04, -1.00,   3,  2.314E-03,  2.383E-04,  1.232E-13,  5.933E-14,  3.322E+02,  1.600E+02, 255
2019-204T00:50:25.577,   1, 180,   1,    30,   4,          0,     41.614,  99294.559,    31.157,   -38.973,     1.112,    81.564, 2, 5.486E-04, -1.00,   3,  2.451E-03,  2.339E-04,  1.074E-13,  5.823E-14,  2.734E+02,  1.483E+02, 255
2019-204T00:50:55.578,   1, 180,   1,    30,   4,          0,     41.614,  99294.559,    31.161,   -38.971,     1.112,    81.261, 2, 5.486E-04, -1.00,   3,  3.205E-03,  2.616E-04,  3.376E-14,  5.829E-14,  6.573E+01,  1.135E+02, 255
2019-204T00:51:25.578,   1, 180,   1,    30,   4,          0,     41.614,  99294.559,    31.165,   -38.970,     1.112,    80.958, 2, 5.486E-04, -1.00,   3,  2.545E-03,  2.392E-04,  7.147E-14,  5.840E-14,  1.753E+02,  1.432E+02, 255
2019-204T00:51:55.578,   1, 180,   1,    30,   4,          0,     41.614,  99294.559,    31.168,   -38.968,     1.112,    80.656, 2, 5.486E-04, -1.00,   3,  2.986E-03,  2.693E-04,  1.102E-13,  5.887E-14,  2.304E+02,  1.231E+02, 255
2019-204T00:52:25.579,   1, 180,   1,    30,   4,          0,     41.614,  99294.559,    31.172,   -38.967,     1.112,    80.353, 2, 5.486E-04, -1.00,   3,  2.566E-03,  2.542E-04,  4.952E-14,  5.814E-14,  1.204E+02,  1.414E+02, 255
2019-204T01:27:55.603,   1, 180,   1,    30,   4,          0,     41.614,  99294.559,    31.435,   -38.862,     1.110,    58.857, 2, 5.486E-04, -1.00,   3,  2.684E-03,  2.404E-04,  8.569E-14,  5.655E-14,  1.992E+02,  1.315E+02, 255
2019-204T01:28:25.603,   1, 180,   1,    30,   4,          0,     41.614,  99294.559,    31.439,   -38.861,     1.109,    58.554, 2, 5.486E-04, -1.00,   3,  2.652E-03,  2.434E-04,  2.278E-13,  5.765E-14,  5.362E+02,  1.357E+02, 255
2019-204T01:28:55.604,   1, 180,   1,    30,   4,          0,     41.614,  99294.559,    31.443,   -38.859,     1.109,    58.251, 2, 5.486E-04, -1.00,   3,  2.885E-03,  2.359E-04,  1.273E-14,  5.606E-14,  2.755E+01,  1.213E+02, 255
2019-204T01:29:25.604,   1, 180,   1,    30,   4,          0,     41.614,  99294.559,    31.446,   -38.858,     1.109,    57.949, 2, 5.486E-04, -1.00,   3,  2.752E-03,  2.321E-04,  1.308E-13,  5.566E-14,  2.966E+02,  1.262E+02, 255
2019-204T01:29:55.605,   1, 180,   1,    30,   4,          0,     41.614,  99294.559,    31.450,   -38.856,     1.109,    57.646, 2, 5.486E-04, -1.00,   3,  2.224E-03,  2.226E-04,  7.912E-14,  5.683E-14,  2.220E+02,  1.595E+02, 255
2019-204T01:41:25.612,   1, 180,   1,    30,   4,          0,     41.614,  99294.559,    31.535,   -38.823,     1.109,    50.683, 2, 5.486E-04, -1.00,   3,  2.676E-03,  2.395E-04,  2.638E-13,  5.785E-14,  6.154E+02,  1.349E+02, 255
2019-204T01:41:55.613,   1, 180,   1,    30,   4,          0,     41.614,  99294.559,    31.539,   -38.821,     1.109,    50.380, 2, 5.486E-04, -1.00,   3,  2.492E-03,  2.287E-04,  4.673E-14,  5.629E-14,  1.171E+02,  1.410E+02, 255
2019-204T01:42:25.613,   1, 180,   1,    30,   4,          0,     41.614,  99294.559,    31.542,   -38.820,     1.109,    50.077, 2, 5.486E-04, -1.00,   3,  3.139E-03,  2.453E-04,  1.592E-13,  5.638E-14,  3.166E+02,  1.121E+02, 255
2019-204T02:15:25.636,   1, 180,   1,    30,   4,          0,     41.614,  99294.559,    31.785,   -38.725,     1.106,    30.096, 2, 5.486E-04, -1.00,   3,  3.227E-03,  2.462E-04,  1.388E-13,  5.730E-14,  2.685E+02,  1.108E+02, 255
2019-204T02:15:55.636,   1, 180,   1,    30,   4,          0,     41.614,  99294.559,    31.789,   -38.723,     1.106,    29.793, 2, 5.486E-04, -1.00,   3,  2.815E-03,  2.385E-04,  2.976E-13,  5.775E-14,  6.599E+02,  1.280E+02, 255
2019-204T02:16:25.636,   1, 180,   1,    30,   4,          0,     41.614,  99294.559,    31.793,   -38.722,     1.106,    29.491, 2, 5.486E-04, -1.00,   3,  2.425E-03,  2.295E-04,  5.269E-14,  5.633E-14,  1.356E+02,  1.450E+02, 255
2019-204T02:16:55.637,   1, 180,   1,    30,   4,          0,     41.614,  99294.559,    31.796,   -38.720,     1.106,    29.188, 2, 5.486E-04, -1.00,   3,  2.336E-03,  2.257E-04,  9.655E-14,  5.622E-14,  2.579E+02,  1.502E+02, 255
2019-204T11:11:56.003,   1, 180,   1,    30,   4,          0,     41.614,  99294.559,    35.570,   -37.354,     1.075,    65.317, 2, 5.486E-04, -1.00,   3,  2.618E-03,  2.524E-04,  9.721E-15,  6.112E-14,  2.318E+01,  1.458E+02, 255
2019-204T11:12:26.003,   1, 180,   1,    30,   4,          0,     41.614,  99294.559,    35.573,   -37.352,     1.075,    65.015, 2, 5.486E-04, -1.00,   3,  2.754E-03,  2.792E-04,  1.842E-13,  6.409E-14,  4.175E+02,  1.453E+02, 255
2019-204T11:12:56.004,   1, 180,   1,    30,   4,          0,     41.614,  99294.559,    35.577,   -37.351,     1.075,    64.712, 2, 5.486E-04, -1.00,   3,  2.300E-03,  2.504E-04,  1.164E-13,  6.119E-14,  3.158E+02,  1.660E+02, 255
2019-204T11:15:56.006,   1, 180,   1,    30,   4,          0,     41.614,  99294.559,    35.597,   -37.344,     1.075,    62.896, 2, 5.486E-04, -1.00,   3,  2.808E-03,  2.548E-04,  1.494E-13,  6.182E-14,  3.321E+02,  1.374E+02, 255
2019-204T11:16:26.006,   1, 180,   1,    30,   4,          0,     41.614,  99294.559,    35.600,   -37.343,     1.075,    62.594, 2, 5.486E-04, -1.00,   3,  3.045E-03,  2.635E-04,  1.336E-13,  6.128E-14,  2.739E+02,  1.256E+02, 255
2019-204T11:16:56.006,   1, 180,   1,    30,   4,          0,     41.614,  99294.559,    35.604,   -37.342,     1.075,    62.291, 2, 5.486E-04, -1.00,   3,  2.105E-03,  2.390E-04,  5.475E-14,  6.164E-14,  1.623E+02,  1.827E+02, 255
2019-204T11:18:56.008,   1, 180,   1,    30,   4,          0,     41.614,  99294.559,    35.617,   -37.338,     1.075,    61.080, 2, 5.486E-04, -1.00,   3,  2.078E-03,  2.385E-04,  1.730E-13,  6.431E-14,  5.196E+02,  1.932E+02, 255
2019-204T11:19:26.008,   1, 180,   1,    30,   4,          0,     41.614,  99294.559,    35.621,   -37.336,     1.075,    60.778, 2, 5.486E-04, -1.00,   3,  2.179E-03,  2.474E-04,  9.563E-14,  6.220E-14,  2.739E+02,  1.781E+02, 255
2019-204T11:19:56.008,   1, 180,   1,    30,   4,          0,     41.614,  99294.559,    35.624,   -37.335,     1.075,    60.475, 2, 5.486E-04, -1.00,   3,  2.432E-03,  2.526E-04,  2.511E-13,  6.273E-14,  6.444E+02,  1.610E+02, 255
2019-204T11:20:26.009,   1, 180,   1,    30,   4,          0,     41.614,  99294.559,    35.628,   -37.334,     1.075,    60.173, 2, 5.486E-04, -1.00,   3,  1.848E-03,  2.376E-04,  8.076E-14,  6.251E-14,  2.727E+02,  2.111E+02, 255
2019-204T11:20:56.009,   1, 180,   1,    30,   4,          0,     41.614,  99294.559,    35.631,   -37.333,     1.075,    59.870, 2, 5.486E-04, -1.00,   3,  2.530E-03,  2.482E-04,  7.084E-14,  6.219E-14,  1.748E+02,  1.534E+02, 255
2019-204T11:21:26.009,   1, 180,   1,    30,   4,          0,     41.614,  99294.559,    35.634,   -37.332,     1.075,    59.567, 2, 5.486E-04, -1.00,   3,  2.419E-03,  2.648E-04,  2.316E-13,  6.668E-14,  5.977E+02,  1.721E+02, 255
2019-204T11:21:56.010,   1, 180,   1,    30,   4,          0,     41.614,  99294.559,    35.638,   -37.331,     1.075,    59.265, 2, 5.486E-04, -1.00,   3,  2.551E-03,  2.669E-04,  1.681E-14,  6.108E-14,  4.112E+01,  1.494E+02, 255
2019-204T11:22:26.010,   1, 180,   1,    30,   4,          0,     41.614,  99294.559,    35.641,   -37.330,     1.074,    58.962, 2, 5.486E-04, -1.00,   3,  2.248E-03,  2.528E-04,  1.115E-13,  6.192E-14,  3.095E+02,  1.719E+02, 255
2019-204T11:26:56.013,   1, 180,   1,    30,   4,          0,     41.614,  99294.559,    35.672,   -37.319,     1.074,    56.238, 2, 5.486E-04, -1.00,   3,  2.589E-03,  2.482E-04,  7.252E-14,  5.997E-14,  1.748E+02,  1.446E+02, 255
2019-204T11:27:26.014,   1, 180,   1,    30,   4,          0,     41.614,  99294.559,    35.675,   -37.318,     1.074,    55.936, 2, 5.486E-04, -1.00,   3,  2.269E-03,  2.461E-04,  2.279E-13,  6.199E-14,  6.269E+02,  1.705E+02, 255
2019-204T11:27:56.014,   1, 180,   1,    30,   4,          0,     41.614,  99294.559,    35.678,   -37.317,     1.074,    55.633, 2, 5.486E-04, -1.00,   3,  1.859E-03,  2.369E-04,  8.005E-14,  6.377E-14,  2.688E+02,  2.141E+02, 255
2019-204T11:28:26.014,   1, 180,   1,    30,   4,          0,     41.614,  99294.559,    35.682,   -37.316,     1.074,    55.330, 2, 5.486E-04, -1.00,   3,  2.068E-03,  2.304E-04,  1.104E-13,  6.012E-14,  3.332E+02,  1.814E+02, 255
2019-204T11:31:26.016,   1, 180,   1,    30,   4,          0,     41.614,  99294.559,    35.702,   -37.309,     1.074,    53.515, 2, 5.486E-04, -1.00,   3,  2.716E-03,  2.589E-04,  1.504E-13,  6.239E-14,  3.455E+02,  1.433E+02, 255
2019-204T11:31:56.017,   1, 180,   1,    30,   4,          0,     41.614,  99294.559,    35.706,   -37.308,     1.074,    53.212, 2, 5.486E-04, -1.00,   3,  2.123E-03,  2.454E-04,  6.776E-14,  6.444E-14,  1.993E+02,  1.895E+02, 255
2019-204T11:32:26.017,   1, 180,   1,    30,   4,          0,     41.614,  99294.559,    35.709,   -37.307,     1.074,    52.909, 2, 5.486E-04, -1.00,   3,  3.427E-03,  3.028E-04,  1.201E-13,  6.373E-14,  2.188E+02,  1.161E+02, 255
2019-204T11:34:56.019,   1, 180,   1,    30,   4,          0,     41.614,  99294.559,    35.726,   -37.301,     1.074,    51.396, 2, 5.486E-04, -1.00,   3,  2.569E-03,  2.426E-04,  1.629E-13,  6.041E-14,  3.956E+02,  1.467E+02, 255
2019-204T11:35:26.019,   1, 180,   1,    30,   4,          0,     41.614,  99294.559,    35.729,   -37.300,     1.074,    51.094, 2, 5.486E-04, -1.00,   3,  2.362E-03,  2.450E-04,  1.224E-13,  6.063E-14,  3.233E+02,  1.602E+02, 255
2019-204T11:35:56.019,   1, 180,   1,    30,   4,          0,     41.614,  99294.559,    35.733,   -37.299,     1.074,    50.791, 2, 5.486E-04, -1.00,   3,  2.690E-03,  2.573E-04,  2.989E-14,  6.020E-14,  6.935E+01,  1.397E+02, 255
2019-204T12:06:26.040,   1, 180,   1,    30,   4,          0,     41.614,  99294.559,    35.939,   -37.230,     1.072,    32.331, 2, 5.486E-04, -1.00,   3,  2.174E-03,  2.447E-04,  5.247E-14,  6.317E-14,  1.506E+02,  1.813E+02, 255
2019-204T12:06:56.041,   1, 180,   1,    30,   4,          0,     41.614,  99294.559,    35.942,   -37.229,     1.072,    32.028, 2, 5.486E-04, -1.00,   3,  2.710E-03,  2.664E-04,  2.134E-13,  6.294E-14,  4.916E+02,  1.450E+02, 255
2019-204T12:07:26.041,   1, 180,   1,    30,   4,          0,     41.614,  99294.559,    35.945,   -37.228,     1.072,    31.726, 2, 5.486E-04, -1.00,   3,  1.933E-03,  2.475E-04,  1.326E-13,  6.252E-14,  4.283E+02,  2.019E+02, 255
2019-204T12:30:56.057,   1, 180,   1,    30,   4,          0,     41.614,  99294.559,    36.103,   -37.175,     1.071,    17.502, 2, 5.486E-04, -1.00,   3,  2.084E-03,  2.373E-04,  9.672E-14,  6.377E-14,  2.897E+02,  1.910E+02, 255
2019-204T12:31:26.057,   1, 180,   1,    30,   4,          0,     41.614,  99294.559,    36.107,   -37.174,     1.071,    17.200, 2, 5.486E-04, -1.00,   3,  2.514E-03,  2.541E-04,  9.880E-14,  6.298E-14,  2.453E+02,  1.564E+02, 255
2019-204T12:31:56.058,   1, 180,   1,    30,   4,          0,     41.614,  99294.559,    36.110,   -37.173,     1.071,    16.897, 2, 5.486E-04, -1.00,   3,  2.510E-03,  2.687E-04,  1.667E-14,  6.329E-14,  4.144E+01,  1.574E+02, 255
2019-204T12:32:26.058,   1, 180,   1,    30,   4,          0,     41.614,  99294.559,    36.113,   -37.172,     1.071,    16.594, 2, 5.486E-04, -1.00,   3,  2.481E-03,  2.545E-04,  1.564E-13,  6.305E-14,  3.934E+02,  1.586E+02, 255
2019-204T22:19:26.463,   1, 180,   1,    30,   4,          0,     41.614,  99294.559,    39.909,   -35.994,     1.045,    21.363, 2, 5.486E-04, -1.00,   3,  3.342E-03,  3.810E-04,  1.458E-13,  8.098E-14,  2.724E+02,  1.512E+02, 255
2019-204T22:19:56.464,   1, 180,   1,    30,   4,          0,     41.614,  99294.559,    39.913,   -35.993,     1.045,    21.060, 2, 5.486E-04, -1.00,   3,  2.080E-03,  2.955E-04,  8.887E-14,  8.014E-14,  2.667E+02,  2.405E+02, 255
2019-204T22:20:26.464,   1, 180,   1,    30,   4,          0,     41.614,  99294.559,    39.916,   -35.992,     1.044,    20.758, 2, 5.486E-04, -1.00,   3,  2.180E-03,  3.316E-04,  2.014E-13,  8.398E-14,  5.767E+02,  2.405E+02, 255
2019-204T22:20:56.464,   1, 180,   1,    30,   4,          0,     41.614,  99294.559,    39.919,   -35.991,     1.044,    20.455, 2, 5.486E-04, -1.00,   3,  2.474E-03,  2.976E-04,  2.266E-13,  7.964E-14,  5.717E+02,  2.009E+02, 255
